User: anonymous   Login
Location: Nantong Television Tower
(32.0188°N, 120.8512°E)
Time: 02:59:15
(UTC+08:00)
Language:

ATLAS 3B CENTAUR R/B - Orbit

View from above orbital plane
View from above orbital plane
View from above satellite
View from above satellite

Ground track
Ground track

The orbit data is extracted from the following two-line orbital elements,

1 28118U 03057B   16045.09100530  .00114505  00000-0  22173-2 0  9992
2 28118  28.1201 274.2967 3384701  56.3631 331.5446  8.69632347245356
Epoch (UTC): 14 February 2016 02:11:02
Eccentricity: 0.3384701
inclination: 28.1201°
perigee height: 230 km
apogee height: 6991 km
right ascension of ascending node: 274.2967°
argument of perigee: 56.3631°
revolutions per day: 8.69632347
mean anomaly at epoch: 331.5446°
orbit number at epoch: 24535

The dashed part of the orbit path shows where the satellite is in the earth's shadow,  

DLR